Wind_Speed
19 19 18 18 19 17 14 13 12 12 11 11 11 10 9 9 9 9 9 9 9 9 9 9 8 8 8 8 9 9 9 9 9 11 12 12 12 12 11 11 11 10 10 11 11 11 10 10 9
19 19 19 20 19 16 15 14 13 12 12 12 12 11 11 10 10 10 10 9 9 9 8 8 8 8 8 8 9 9 10 10 11 12 13 12 12 11 11 11 10 10 10 10 11 10 10 9 9
18 19 19 20 18 17 16 16 15 13 13 13 12 12 12 11 11 10 10 10 10 9 8 8 8 8 8 9 10 10 11 12 13 13 13 13 13 12 11 11 11 11 11 10 10 10 10 9 8
18 19 20 19 18 17 17 17 16 15 15 14 13 13 12 12 12 11 11 11 10 9 8 8 8 8 9 10 10 11 11 12 13 14 14 14 14 13 12 11 11 11 11 10 9 10 10 9 8
18 19 19 17 18 18 17 18 18 18 16 15 14 14 13 13 12 11 11 10 10 9 8 8 9 10 9 10 11 11 11 12 13 13 13 13 13 13 12 12 12 12 11 11 10 10 10 9 9
18 19 17 17 18 19 19 18 19 19 18 16 14 14 14 14 13 12 11 11 10 9 9 8 9 10 10 10 10 11 11 12 13 13 13 13 13 13 12 12 12 13 12 11 11 11 10 9 9
17 17 16 17 18 19 19 19 19 19 19 17 16 15 14 14 13 12 12 11 11 10 9 9 9 9 10 11 10 10 11 12 12 12 11 11 11 11 11 11 11 11 10 9 10 10 10 9 8
17 17 17 17 18 19 19 19 19 19 20 18 17 16 15 14 14 13 12 11 11 11 11 10 9 10 10 10 11 10 11 11 10 10 10 10 11 10 10 10 11 11 11 10 10 10 9 9 8
17 16 16 17 18 19 19 19 19 19 20 19 18 17 15 14 14 13 12 12 11 11 11 11 10 10 10 10 11 10 11 10 10 10 10 10 10 10 10 10 11 11 11 11 10 9 8 8 7
15 14 15 17 17 18 19 19 19 19 20 19 18 17 16 15 14 13 13 13 12 12 12 11 11 10 10 10 11 10 10 10 10 10 10 9 10 10 10 10 10 10 10 10 9 8 8 7 6
14 14 15 16 17 17 19 19 20 20 20 19 18 18 16 15 14 13 13 12 12 12 11 10 10 10 11 10 10 10 10 10 9 10 9 9 9 9 9 10 10 9 9 9 8 7 7 6 5
12 13 14 15 16 17 18 19 20 20 20 19 18 17 16 16 14 13 12 12 12 11 11 10 10 10 10 10 10 9 9 10 10 10 9 9 9 9 9 9 9 9 8 8 7 6 6 5 4
10 11 12 14 15 16 17 18 19 19 20 20 18 17 16 15 14 12 12 11 11 11 11 11 10 10 9 9 8 9 9 9 10 10 10 10 9 9 9 9 9 9 8 7 6 6 5 4 3
8 9 11 12 14 14 16 17 17 18 19 19 18 17 16 14 13 11 11 10 10 10 10 10 10 10 9 8 8 9 9 9 9 9 10 10 9 8 8 9 8 9 8 7 7 5 5 3 3
6 7 9 10 12 13 14 15 16 16 17 18 17 16 16 14 13 11 11 10 10 10 10 10 9 9 9 9 8 9 9 9 9 9 9 9 8 8 9 8 8 8 8 7 6 5 4 3 3
4 5 6 7 9 11 13 13 14 14 15 16 16 15 14 13 13 12 10 9 9 9 9 8 9 8 8 9 9 9 9 9 8 8 8 8 7 8 8 7 7 7 6 6 5 4 3 3 2
2 3 3 4 6 9 10 10 11 12 13 14 14 14 13 13 12 11 10 9 9 8 8 8 8 8 8 8 8 9 8 8 7 8 7 7 7 7 6 6 6 6 5 4 3 3 2 2 1
4 3 1 2 4 6 8 9 10 11 11 12 12 12 12 12 11 10 10 9 8 8 8 8 8 8 8 8 8 7 7 7 6 6 7 7 7 6 6 5 5 4 4 3 2 2 1 1 0
7 6 4 2 2 4 6 7 8 9 9 10 10 10 11 11 11 10 9 9 8 7 6 6 7 7 6 6 6 6 6 6 5 5 5 6 6 5 5 4 4 4 3 3 2 1 1 1 1
9 7 6 5 3 2 3 5 7 8 7 8 8 9 10 10 10 9 9 9 8 7 6 5 5 5 5 5 5 5 5 5 5 5 4 4 4 4 4 3 3 3 2 2 1 1 1 1 2
12 9 8 7 5 4 3 4 6 6 6 7 7 8 8 9 9 9 8 8 8 7 6 5 5 5 4 4 5 5 5 4 3 3 3 3 2 2 2 2 2 2 1 1 1 1 1 2 3
13 12 10 9 7 6 4 3 5 4 5 6 6 6 7 7 8 8 8 7 7 7 6 5 4 4 4 4 4 4 4 4 3 3 3 3 2 2 2 3 2 1 1 1 2 3 3 3 3
16 15 13 11 10 8 7 4 5 4 5 5 5 6 6 6 7 7 7 7 7 6 6 5 4 3 3 3 3 3 2 3 3 3 2 2 2 2 2 2 1 0 1 2 3 3 4 4 4
18 17 15 13 12 10 9 6 5 6 5 5 5 5 5 5 6 6 6 6 6 6 5 5 4 4 3 3 2 3 2 2 2 2 2 1 1 1 1 0 1 2 2 3 3 4 4 5 5
21 18 15 14 13 13 12 9 7 7 6 4 4 5 6 6 6 5 5 5 5 4 4 5 4 4 3 3 3 3 3 2 2 2 2 2 1 1 1 1 2 2 3 3 4 5 6 6 6
23 20 18 15 14 13 13 10 8 7 6 6 5 6 6 6 6 6 5 5 5 4 4 4 4 3 3 3 3 3 2 2 2 2 2 1 2 2 2 3 3 4 4 4 5 6 7 7 7
24 23 20 18 16 14 14 12 10 9 8 7 7 6 6 6 6 7 6 5 5 4 4 4 4 3 4 3 3 3 2 2 2 2 2 3 3 3 3 4 4 5 6 6 6 7 7 8 8
26 24 22 19 18 16 15 13 11 10 9 9 9 7 7 7 7 7 7 6 6 5 5 5 4 4 4 3 3 3 3 3 3 3 3 4 4 3 3 4 5 5 6 6 6 7 7 8 8
27 25 24 22 20 17 15 14 13 11 11 10 10 9 9 9 8 8 7 7 7 7 7 6 6 5 4 4 4 4 4 5 5 5 5 5 4 2 3 5 5 6 6 7 7 8 8 9 9
28 27 26 25 23 21 18 16 15 13 12 12 11 11 11 10 10 10 10 9 9 9 8 8 7 7 6 6 6 6 6 6 7 6 6 6 5 5 5 6 7 7 8 8 9 9 9 10 10
Wind_Direction
56 56 56 59 59 58 60 64 69 69 67 69 70 72 74 83 85 89 92 97 97 103 107 109 114 120 127 128 131 131 129 129 132 138 140 139 139 140 140 140 137 133 132 132 132 133 130 128 124
56 56 57 59 60 59 61 64 66 65 67 67 67 69 74 77 82 85 91 99 100 104 106 109 112 116 119 120 123 125 125 124 124 130 134 138 140 141 141 141 138 136 134 133 132 132 131 128 125
56 56 58 59 60 61 61 62 63 63 64 64 66 68 71 73 76 84 91 94 96 103 110 112 113 116 118 121 124 123 123 122 124 127 130 133 137 141 144 144 139 137 136 135 133 132 130 128 127
56 58 58 58 59 62 62 61 61 62 63 66 68 69 69 71 73 79 86 89 92 97 107 109 112 115 119 125 123 125 125 124 128 129 128 131 132 135 137 139 139 137 135 137 138 135 134 131 128
57 59 58 57 58 61 61 62 62 61 62 67 70 69 70 72 72 76 79 86 93 96 103 109 114 117 118 120 120 123 126 128 130 130 130 132 134 132 132 137 140 141 140 143 141 139 135 133 130
60 59 60 59 59 60 60 61 62 61 61 64 68 71 72 71 74 77 79 82 87 93 99 108 115 116 120 121 123 122 125 128 132 133 135 137 137 134 135 139 140 142 140 140 141 136 133 131 128
65 64 62 61 60 60 59 60 61 60 61 62 65 70 73 74 72 75 79 83 84 90 99 105 113 114 118 122 123 121 125 126 129 133 135 140 139 139 134 135 139 140 140 141 141 136 132 130 130
67 65 61 61 60 59 59 60 60 61 60 61 63 67 72 74 74 76 81 83 84 90 96 103 107 111 114 118 119 119 123 125 127 129 131 136 137 136 134 135 137 137 140 140 139 139 135 132 132
68 64 62 61 60 59 59 60 60 61 60 60 63 65 69 74 75 77 79 81 84 89 95 98 103 104 107 113 117 120 121 120 125 128 128 131 138 141 136 134 139 138 141 140 140 141 140 139 137
72 67 63 62 61 61 61 61 60 60 60 59 62 65 67 70 74 76 78 81 83 87 94 97 101 101 105 109 112 117 119 120 123 128 131 130 134 138 141 139 142 143 144 144 144 143 145 146 147
76 71 65 62 62 62 62 61 59 59 58 58 59 63 67 69 70 73 76 79 82 88 93 96 99 101 101 99 107 114 114 122 126 127 128 129 136 141 146 144 140 145 150 149 147 145 151 148 153
75 72 66 61 61 60 60 60 58 58 56 56 56 59 62 67 66 70 75 78 80 84 89 93 95 97 97 96 98 106 109 114 121 129 133 135 138 142 149 150 144 150 151 150 154 154 152 150 154
76 73 66 61 60 59 59 59 56 55 54 52 53 55 58 62 64 67 71 75 76 79 84 88 89 92 93 95 98 100 108 113 114 119 124 128 135 140 142 146 149 147 145 144 150 156 152 152 152
85 77 67 62 58 57 57 57 54 51 51 51 51 53 55 58 61 66 69 73 76 78 81 85 84 85 87 87 88 95 98 106 112 115 118 119 124 130 134 142 144 143 139 137 141 142 143 146 153
92 80 66 60 56 54 52 52 51 49 47 48 48 50 50 52 56 61 66 75 76 77 79 81 83 82 84 86 85 93 95 104 111 116 116 114 112 114 117 124 130 136 136 130 126 125 138 152 166
96 80 57 52 52 50 50 46 45 46 45 44 45 46 47 48 51 57 63 71 73 73 78 80 81 82 85 87 87 92 94 102 107 108 110 113 112 110 113 121 125 133 130 129 128 127 128 143 163
139 107 68 40 39 46 48 43 39 42 43 42 42 43 44 45 49 53 58 65 68 70 77 80 78 80 85 88 88 88 91 94 96 96 102 103 105 111 115 114 115 123 126 126 124 125 124 124 159
210 193 194 5 20 32 37 39 36 37 41 40 39 39 40 43 47 50 52 57 63 68 73 79 79 80 84 88 88 87 85 89 89 90 97 102 105 106 108 107 108 110 118 111 109 112 114 114 206
212 214 233 268 343 23 30 27 25 30 35 36 36 36 36 38 43 46 49 53 58 64 68 73 78 82 86 88 88 85 85 87 88 89 96 106 108 111 115 114 114 113 108 102 84 76 51 8 313
218 227 241 251 276 334 13 13 16 22 30 32 32 32 31 34 38 40 45 49 51 54 57 67 76 81 84 85 90 84 86 90 86 85 94 104 111 113 116 117 120 117 103 85 90 64 20 344 325
225 231 236 243 256 280 311 353 0 16 20 24 25 25 27 29 29 30 33 38 40 43 50 60 73 79 77 75 80 82 86 84 86 89 91 102 117 125 130 125 129 117 91 51 30 10 338 325 311
231 232 235 244 252 269 275 306 329 352 1 4 6 12 17 20 22 24 24 27 31 32 39 48 61 68 74 73 76 72 79 72 86 99 94 96 103 129 145 144 141 123 53 358 349 350 341 324 309
230 234 236 242 249 258 268 276 296 312 336 339 347 357 0 6 10 15 18 18 23 26 30 35 41 48 58 68 76 69 72 67 80 92 94 97 105 125 138 145 151 187 328 338 337 332 333 330 323
230 233 238 242 248 254 258 263 279 291 303 318 332 343 345 350 355 1 7 11 13 18 22 24 27 32 36 43 53 51 55 55 72 70 64 88 116 132 136 108 305 303 311 320 322 320 322 323 317
229 231 239 242 245 250 256 255 260 273 282 284 302 316 327 332 336 341 349 359 3 9 16 16 16 24 30 33 35 33 39 51 50 53 50 30 19 9 326 346 337 319 310 316 321 321 320 316 311
230 230 230 234 243 251 257 253 255 262 273 271 283 298 310 321 323 317 324 330 343 350 349 355 359 3 8 10 13 15 22 26 25 15 5 344 345 332 300 304 312 312 311 312 313 314 315 314 312
231 230 230 237 244 247 252 255 259 259 263 267 273 279 288 300 307 305 309 311 316 324 323 327 335 344 352 359 1 2 2 349 338 337 332 314 313 310 308 309 305 305 299 301 305 307 311 309 308
230 232 232 231 237 243 253 257 258 258 258 260 265 270 274 280 289 292 296 297 300 305 300 311 324 324 331 343 343 332 323 316 316 318 323 327 316 299 309 325 323 315 309 305 310 315 315 310 310
231 232 233 233 235 238 248 253 255 257 260 258 257 261 267 271 276 277 283 285 290 294 289 292 300 308 307 313 317 313 306 303 305 310 313 320 320 301 311 321 329 326 320 315 315 315 316 314 311
233 233 234 235 239 241 242 252 257 256 258 258 257 260 263 265 270 273 274 277 280 284 283 279 287 292 294 293 299 302 300 298 299 301 305 309 309 301 305 316 322 322 319 318 316 316 315 313 310
Height
5888 5887 5885 5884 5883 5883 5881 5879 5877 5876 5874 5873 5871 5870 5869 5869 5869 5870 5867 5865 5865 5864 5864 5864 5865 5865 5866 5866 5866 5866 5867 5867 5867 5867 5869 5871 5872 5874 5876 5877 5878 5879 5880 5881 5882 5883 5884 5885 5886
5891 5889 5889 5887 5887 5886 5884 5881 5879 5877 5876 5874 5872 5872 5871 5870 5869 5868 5866 5866 5866 5865 5865 5866 5866 5866 5867 5867 5867 5867 5868 5868 5868 5869 5870 5872 5874 5875 5877 5878 5879 5880 5881 5883 5884 5885 5886 5887 5888
5893 5892 5891 5890 5889 5888 5886 5883 5881 5878 5877 5875 5874 5873 5872 5871 5870 5869 5868 5868 5867 5867 5867 5867 5867 5868 5868 5868 5869 5869 5869 5870 5870 5871 5872 5873 5875 5876 5877 5879 5880 5881 5883 5884 5885 5886 5887 5888 5889
5896 5895 5894 5894 5892 5889 5887 5885 5882 5880 5878 5877 5876 5875 5873 5872 5871 5870 5869 5869 5869 5868 5868 5868 5869 5869 5869 5869 5870 5870 5870 5871 5872 5873 5874 5875 5876 5877 5878 5880 5881 5882 5883 5884 5886 5887 5888 5889 5890
5899 5898 5898 5896 5894 5892 5889 5887 5884 5882 5880 5879 5877 5876 5875 5874 5873 5872 5871 5870 5870 5870 5870 5870 5870 5871 5871 5871 5871 5872 5872 5872 5873 5874 5875 5876 5877 5879 5879 5880 5882 5883 5884 5885 5887 5888 5889 5890 5891
5902 5901 5902 5899 5896 5894 5892 5889 5887 5885 5883 5881 5879 5878 5877 5875 5874 5874 5873 5872 5872 5872 5872 5872 5872 5872 5873 5873 5873 5873 5873 5874 5875 5876 5877 5878 5879 5880 5881 5882 5883 5884 5885 5886 5888 5889 5890 5892 5892
5905 5905 5903 5901 5899 5897 5895 5892 5889 5887 5885 5883 5882 5880 5879 5878 5877 5876 5875 5875 5875 5874 5874 5874 5874 5874 5874 5874 5875 5875 5875 5876 5876 5877 5878 5879 5880 5881 5882 5883 5884 5885 5887 5888 5889 5890 5891 5892 5893
5907 5908 5906 5904 5902 5900 5897 5895 5892 5890 5888 5886 5884 5883 5881 5880 5879 5879 5878 5877 5877 5877 5877 5876 5876 5876 5876 5876 5876 5876 5877 5877 5878 5878 5879 5880 5882 5882 5884 5885 5886 5887 5888 5889 5890 5891 5892 5893 5894
5909 5912 5909 5907 5904 5902 5900 5897 5895 5893 5891 5889 5887 5885 5884 5883 5882 5881 5881 5880 5880 5879 5879 5879 5878 5878 5878 5877 5877 5878 5878 5878 5879 5879 5881 5882 5883 5883 5885 5885 5887 5888 5888 5890 5891 5892 5893 5894 5895
5913 5914 5911 5909 5907 5905 5902 5900 5898 5896 5894 5892 5890 5888 5887 5886 5885 5884 5884 5883 5882 5882 5881 5881 5881 5880 5880 5879 5880 5880 5880 5880 5881 5881 5882 5883 5884 5885 5886 5887 5888 5889 5889 5890 5892 5893 5894 5895 5895
5915 5915 5913 5911 5909 5907 5905 5903 5901 5899 5897 5895 5893 5892 5890 5889 5888 5887 5887 5886 5885 5885 5884 5884 5883 5883 5882 5882 5882 5882 5882 5882 5883 5883 5884 5884 5885 5885 5886 5887 5888 5889 5890 5891 5892 5893 5894 5895 5896
5917 5916 5915 5913 5911 5909 5908 5906 5904 5902 5900 5898 5896 5894 5893 5891 5891 5890 5890 5889 5888 5887 5887 5886 5885 5885 5884 5884 5884 5884 5884 5884 5884 5885 5885 5886 5886 5886 5887 5888 5889 5890 5891 5892 5893 5894 5895 5895 5896
5919 5918 5917 5916 5914 5912 5910 5908 5907 5905 5903 5901 5899 5897 5896 5895 5894 5893 5892 5891 5890 5890 5889 5888 5887 5887 5887 5886 5886 5886 5886 5886 5886 5886 5886 5886 5887 5888 5888 5889 5890 5890 5891 5892 5893 5894 5895 5896 5896
5921 5920 5919 5918 5916 5915 5913 5911 5909 5908 5906 5904 5902 5900 5899 5897 5896 5895 5894 5894 5893 5892 5891 5890 5890 5889 5889 5888 5888 5887 5887 5887 5888 5888 5888 5888 5889 5889 5890 5890 5891 5891 5892 5893 5894 5894 5895 5896 5896
5922 5922 5921 5920 5918 5917 5916 5914 5912 5910 5908 5907 5905 5903 5902 5900 5899 5898 5897 5896 5895 5894 5893 5892 5892 5891 5891 5890 5890 5890 5889 5889 5890 5890 5890 5890 5890 5890 5891 5892 5892 5893 5893 5894 5894 5895 5895 5896 5897
5923 5924 5924 5922 5920 5919 5919 5918 5915 5913 5911 5909 5908 5906 5905 5903 5902 5900 5899 5898 5897 5896 5895 5894 5894 5893 5893 5892 5892 5892 5892 5892 5891 5891 5891 5892 5892 5892 5892 5893 5893 5893 5894 5894 5895 5895 5896 5896 5897
5925 5926 5925 5924 5922 5921 5920 5919 5917 5915 5913 5912 5910 5909 5908 5906 5904 5903 5902 5900 5899 5898 5897 5896 5896 5895 5895 5894 5894 5894 5894 5893 5893 5893 5893 5893 5893 5893 5893 5894 5894 5894 5895 5895 5896 5896 5896 5896 5896
5926 5926 5926 5925 5923 5922 5921 5921 5919 5917 5916 5914 5913 5911 5910 5909 5907 5905 5904 5903 5901 5900 5899 5899 5898 5897 5897 5896 5896 5896 5895 5895 5895 5895 5894 5894 5894 5894 5895 5895 5895 5895 5896 5896 5896 5896 5896 5896 5896
5924 5925 5925 5925 5924 5923 5923 5922 5920 5919 5917 5916 5915 5913 5912 5911 5910 5908 5906 5905 5904 5902 5901 5901 5900 5899 5898 5898 5897 5897 5897 5897 5897 5896 5896 5896 5896 5896 5896 5896 5896 5896 5896 5896 5896 5896 5896 5896 5896
5922 5924 5925 5925 5924 5924 5923 5923 5921 5920 5919 5918 5916 5915 5914 5913 5912 5910 5909 5907 5906 5904 5903 5902 5901 5900 5900 5899 5899 5898 5898 5898 5898 5897 5897 5897 5897 5896 5897 5897 5897 5897 5897 5897 5897 5897 5896 5896 5895
5920 5922 5923 5924 5924 5924 5924 5924 5923 5921 5920 5919 5917 5916 5915 5914 5913 5912 5910 5909 5907 5906 5905 5903 5903 5902 5901 5900 5900 5899 5899 5899 5899 5898 5898 5898 5897 5897 5897 5897 5897 5897 5897 5897 5897 5896 5896 5895 5895
5918 5919 5920 5921 5923 5924 5924 5925 5923 5922 5920 5919 5918 5917 5916 5915 5914 5913 5912 5910 5909 5907 5906 5905 5904 5903 5902 5901 5901 5900 5900 5899 5899 5899 5898 5898 5898 5897 5897 5897 5897 5897 5897 5897 5896 5896 5895 5894 5894
5915 5916 5918 5919 5921 5922 5923 5924 5924 5921 5920 5919 5918 5917 5917 5916 5915 5914 5913 5911 5910 5909 5907 5906 5905 5904 5903 5902 5902 5901 5900 5900 5900 5899 5899 5898 5898 5898 5897 5897 5897 5897 5897 5896 5896 5895 5895 5894 5893
5911 5913 5915 5917 5919 5921 5921 5922 5923 5921 5919 5918 5917 5917 5916 5916 5915 5914 5913 5912 5911 5909 5908 5907 5906 5905 5904 5903 5902 5902 5901 5901 5900 5900 5899 5899 5899 5898 5898 5897 5897 5897 5897 5896 5895 5895 5894 5893 5892
5907 5911 5914 5916 5918 5919 5918 5919 5921 5919 5918 5917 5917 5916 5916 5915 5914 5914 5913 5912 5911 5910 5909 5908 5907 5906 5905 5904 5903 5903 5902 5901 5901 5900 5900 5899 5899 5898 5898 5897 5897 5896 5896 5895 5894 5894 5893 5892 5891
5903 5908 5912 5915 5916 5917 5915 5916 5918 5916 5916 5915 5915 5915 5915 5914 5914 5913 5912 5912 5911 5910 5909 5908 5907 5906 5905 5904 5904 5903 5902 5901 5901 5900 5900 5899 5899 5898 5898 5897 5896 5896 5895 5894 5893 5892 5891 5890 5889
5898 5902 5907 5910 5911 5913 5913 5914 5914 5914 5914 5913 5913 5913 5913 5913 5912 5912 5911 5911 5910 5910 5909 5908 5907 5906 5906 5905 5904 5903 5902 5902 5901 5900 5900 5899 5899 5898 5897 5896 5896 5895 5894 5893 5892 5891 5889 5888 5887
5894 5897 5901 5905 5907 5909 5910 5911 5912 5911 5911 5912 5912 5911 5911 5911 5911 5910 5910 5910 5909 5909 5908 5907 5907 5906 5905 5904 5903 5903 5902 5902 5901 5900 5899 5899 5897 5897 5896 5896 5895 5894 5892 5891 5890 5889 5888 5887 5885
5888 5892 5895 5899 5902 5905 5908 5911 5908 5908 5908 5909 5909 5909 5909 5909 5909 5909 5908 5908 5908 5907 5907 5906 5905 5905 5904 5903 5903 5902 5901 5901 5900 5899 5898 5898 5896 5896 5895 5895 5894 5892 5891 5890 5889 5887 5886 5885 5883
5882 5886 5890 5894 5896 5898 5902 5908 5903 5904 5904 5905 5905 5906 5906 5906 5906 5906 5906 5906 5905 5905 5904 5904 5904 5903 5903 5902 5901 5901 5900 5899 5899 5898 5897 5896 5896 5895 5894 5893 5892 5891 5890 5888 5887 5886 5884 5883 5881